Tracking 25710 objects as of 5-Jul-2022
HD Live streaming from Space Station
objects crossing your sky now

FENGYUN 1C DEB

Track FENGYUN 1C DEB now!
10-day predictions


NORAD ID: 30640
Int'l Code: 1999-025ANX
Perigee: 816.3 km
Apogee: 947.8 km
Inclination: 99.2 °
Period: 102.5 minutes
Semi major axis: 7253 km
RCS: 0.018 m2 (small)
Launch date: May 10, 1999
Source: People's Republic of China (PRC)
Launch site: Taiyaun Space Center, China (TSC)

Note: This is SATELLITE DEBRIS
aabbcc
Your satellite tracking list
Your tracking list is empty




NASA's NSSDC Master Catalog

Two Line Element Set (TLE):
1 30640U 99025ANX 22185.79532156  .00000619  00000-0  39479-3 0  9995
2 30640  99.1592 226.6760 0090677  17.9293  41.8258 14.05463404787392
Source of the keplerian elements: AFSPC